Lincoln, NE

11:16 PM CDT on March 27, 2017 (GMT -0500)
Lincoln Municipal

Weather History for KLNK - August, 2014

Change the Weather History Date:

Friday, August 22, 2014

  Actual Average Record
Temperature  
Mean Temperature 83 °F 75 °F  
Max Temperature 93 °F 86 °F 103 °F (1948)
Min Temperature 73 °F 63 °F 46 °F (1923)
Degree Days  
Heating Degree Days 0 0  
Month to date heating degree days 0 0  
Since 1 June heating degree days 4 17  
Since 1 July heating degree days 2 1  
Cooling Degree Days 18 10  
Month to date cooling degree days 254 246  
Year to date cooling degree days 1013 957  
Since 1 June cooling degree days 853 878  
Growing Degree Days 33 (Base 50)    
Moisture  
Dew Point 72 °F    
Average Humidity 73    
Maximum Humidity 93    
Minimum Humidity 52    
Precipitation  
Precipitation 0.18 in 0.12 in 2.94 in (1933)
Month to date precipitation 1.86 2.44  
Year to date precipitation 18.02 20.53  
Snow  
Snow 0.00 in 0.00 in - ()
Month to date snowfall 0.0 0.0  
Since 1 July snowfall 0.0 0.0  
Snow Depth 0.00 in    
Sea Level Pressure  
Sea Level Pressure 29.87 in    
Wind  
Wind Speed 6 mph (East)    
Max Wind Speed 26 mph    
Max Gust Speed 31 mph    
Visibility 9 miles    
Events Rain , Thunderstorm    
T = Trace of Precipitation, MM = Missing Value Source: NWS Daily Summary

Daily Weather History Graph

Daily Weather History Graph

Search for Another Location

Airport or City:

Trip Planner

Search our weather history database for the weather conditions in past years. The results will help you decide how hot, cold, wet, or windy it might be!

Date:

Astronomy

Aug. 22, 2014 Rise Set
Actual Time 6:44 AM CDT 8:14 PM CDT
Civil Twilight 6:15 AM CDT 8:43 PM CDT
Nautical Twilight 5:40 AM CDT 9:18 PM CDT
Astronomical Twilight 5:03 AM CDT 9:55 PM CDT
Moon 4:07 AM CDT (8/22) 6:24 PM CDT (8/22)
Length of Visible Light 14h 28m
Length of Day
13h 30m
Waning Crescent, 7% of the Moon is Illuminated
Aug 22
Waning Crescent
Aug 25
New
Sep 2
First Quarter
Sep 8
Full
Sep 15
Last Quarter

Hourly Weather History & Observations

Time (CDT) Temp. Heat Index Dew Point Humidity Pressure Visibility Wind Dir Wind Speed Gust Speed Precip Events Conditions
12:54 AM 79.0 °F - 73.9 °F 84% 29.83 in 9.0 mi NW 5.8 mph - N/A   Clear
1:54 AM 77.0 °F - 73.0 °F 88% 29.83 in 10.0 mi ENE 3.5 mph - N/A   Clear
2:54 AM 75.9 °F - 71.1 °F 85% 29.85 in 10.0 mi Calm Calm - N/A   Clear
3:54 AM 75.0 °F - 71.1 °F 87% 29.87 in 10.0 mi NE 3.5 mph - N/A   Scattered Clouds
4:54 AM 77.0 °F - 71.1 °F 82% 29.86 in 10.0 mi Calm Calm - N/A   Scattered Clouds
5:54 AM 73.0 °F - 71.1 °F 93% 29.85 in 10.0 mi North 4.6 mph - N/A   Clear
6:54 AM 73.0 °F - 70.0 °F 90% 29.87 in 9.0 mi Calm Calm - N/A   Clear
7:03 AM 73.0 °F - 70.0 °F 90% 29.90 in 9.0 mi Calm Calm - N/A   Scattered Clouds
7:54 AM 75.0 °F - 72.0 °F 90% 29.87 in 8.0 mi North 3.5 mph - N/A   Clear
8:54 AM 79.0 °F - 73.0 °F 82% 29.88 in 8.0 mi Calm Calm - N/A   Clear
9:54 AM 82.9 °F 89.4 °F 73.9 °F 74% 29.89 in 8.0 mi East 5.8 mph - N/A   Clear
10:54 AM 87.1 °F 93.6 °F 72.0 °F 61% 29.88 in 9.0 mi South 6.9 mph - N/A   Partly Cloudy
11:54 AM 88.0 °F 94.7 °F 72.0 °F 59% 29.88 in 9.0 mi SE 4.6 mph - N/A   Clear
12:54 PM 91.9 °F 100.7 °F 73.0 °F 54% 29.88 in 9.0 mi North 6.9 mph - N/A   Partly Cloudy
1:54 PM 90.0 °F 97.9 °F 73.0 °F 57% 29.87 in 9.0 mi NE 5.8 mph - N/A   Mostly Cloudy
2:54 PM 91.0 °F 100.4 °F 73.9 °F 57% 29.86 in 9.0 mi NE 8.1 mph - N/A   Mostly Cloudy
3:54 PM 90.0 °F 99.0 °F 73.9 °F 59% 29.86 in 8.0 mi SSE 9.2 mph - N/A   Overcast
4:21 PM 91.4 °F 100.1 °F 73.4 °F 55% 29.90 in 8.0 mi South 16.1 mph - N/A Thunderstorm Thunderstorm
4:43 PM 90.0 °F 97.9 °F 73.0 °F 57% 29.90 in 9.0 mi SSE 12.7 mph - N/A   Scattered Clouds
4:54 PM 90.0 °F 97.9 °F 73.0 °F 57% 29.86 in 9.0 mi SE 10.4 mph - N/A Thunderstorm Partly Cloudy
5:11 PM 90.0 °F 97.9 °F 73.0 °F 57% 29.90 in 9.0 mi SSE 9.2 mph - N/A   Clear
5:54 PM 90.0 °F 94.5 °F 69.1 °F 50% 29.84 in 9.0 mi South 10.4 mph - N/A   Clear
6:54 PM 89.1 °F 93.7 °F 69.1 °F 52% 29.86 in 9.0 mi ESE 5.8 mph - N/A   Clear
7:54 PM 82.9 °F 88.0 °F 72.0 °F 69% 29.88 in 9.0 mi ENE 8.1 mph - N/A   Clear
8:54 PM 82.9 °F 86.5 °F 69.1 °F 63% 29.88 in 10.0 mi ESE 12.7 mph - N/A   Clear
9:54 PM 81.0 °F 84.4 °F 70.0 °F 69% 29.87 in 10.0 mi ESE 6.9 mph - N/A   Clear
10:54 PM 77.0 °F - 72.0 °F 84% 29.90 in 10.0 mi NE 9.2 mph - N/A   Mostly Cloudy
11:15 PM 75.9 °F - 72.0 °F 87% 29.92 in 10.0 mi NE 8.1 mph - N/A Thunderstorm Mostly Cloudy
11:22 PM 77.0 °F - 72.0 °F 84% 29.95 in 8.0 mi ESE 11.5 mph - 0.00 in Rain , Thunderstorm Light Thunderstorms and Rain
11:54 PM 75.9 °F - 72.0 °F 87% 29.88 in 7.0 mi Variable 3.5 mph - 0.16 in Rain , Thunderstorm Light Thunderstorms and Rain